Regional Weather Roundup
Issued by NWS Glasgow, MT

Home | Current Version | Previous Version | Text Only | Print | Product List | Glossary On
Versions: 1 2 3 4 5 6 7 8 9 10 11 12 13 14 15 16 17 18 19 20 21 22 23 24 25 26 27 28 29 30 31 32 33 34 35 36 37 38 39 40 41 42 43 44 45 46 47 48 49 50
000
ASUS45 KGGW 211715
RWRGGW
HOURLY WEATHER ROUNDUP FOR NORTHEAST MONTANA
NATIONAL WEATHER SERVICE GLASGOW MONTANA
1100 AM MDT THU AUG 21 2014

NOTE: "FAIR" INDICATES FEW OR NO CLOUDS BELOW 12,000 FEET WITH NO
SIGNIFICANT WEATHER AND/OR OBSTRUCTIONS TO VISISBILITY.

NORTHEAST MONTANA


CITY           SKY/WX    TMP DP  RH WIND       PRES   REMARKS
GLASGOW        CLOUDY    68  59  73 N9        29.98R
PLENTYWOOD       N/A     64  57  78 N8          N/A
WOLF POINT     RAIN      63  60  90 E5        29.98S FOG
JORDAN           N/A    N/A N/A N/A MISG      29.99S
WINNETT          N/A     62  55  77 W12         N/A
SIDNEY         PTSUNNY   72  63  73 N8        29.95S
GLENDIVE       CLOUDY    68  63  83 CALM      29.97S
MALTA            N/A     63  59  87 W3          N/A
SCOBEY           N/A     63  55  75 N10       29.98R

FORT PECK REPORTS


CITY           SKY/WX    TMP DP  RH WIND       PRES   REMARKS
FORT PECK        N/A     68  60  75 N7          N/A
THE PINES        N/A     70  58  65 NE6         N/A

SOUTHEAST MONTANA


CITY           SKY/WX    TMP DP  RH WIND       PRES   REMARKS
BILLINGS       PTSUNNY   66  55  67 NE9       30.05R
MILES CITY     CLOUDY    67  56  67 NW6       30.00R
BAKER          PTSUNNY   70  60  70 NW6       29.99R
LIVINGSTON     CLOUDY    59  53  80 CALM      30.07S

CENTRAL MONTANA


CITY           SKY/WX    TMP DP  RH WIND       PRES   REMARKS
HAVRE          CLOUDY    65  56  72 W7        30.03S
LEWISTOWN      CLOUDY    60  53  77 NW8       30.09S
GREAT FALLS    CLOUDY    57  51  80 N8        30.09S
CUT BANK       LGT RAIN  52  50  93 NW8       30.12R FOG
HELENA         PTSUNNY   63  50  62 VRB5      30.08S
BUTTE          CLOUDY    56  49  77 CALM      30.12R
BOZEMAN        LGT RAIN  56  53  90 W13       30.09R

WESTERN MONTANA


CITY           SKY/WX    TMP DP  RH WIND       PRES   REMARKS
MISSOULA       MOSUNNY   66  51  58 SE5       30.03F
KALISPELL      NOT AVBL

NORTH DAKOTA


CITY           SKY/WX    TMP DP  RH WIND       PRES   REMARKS
WILLISTON      CLOUDY    67  59  75 N13       29.94R
DICKINSON      MOSUNNY   73  60  63 N10       29.92R
MINOT          CLOUDY    70  63  78 NW9       29.86R
BISMARCK       PTSUNNY   76  65  68 NW13      29.86S

SOUTHERN SASKATCHEWAN


CITY           SKY/WX    TMP DP  RH WIND       PRES   REMARKS
REGINA         PTSUNNY   66  57  72 N12G21    29.98R
MOOSE JAW      CLOUDY    64  57  77 N10       30.01
ESTEVAN        CLOUDY    66  63  88 NW14      29.92R
SWIFT CURRENT  CLOUDY    61  55  82 NE12      30.03



USA.gov is the U.S. government's official web portal to all federal, state and local government web resources and services.